Starlink 30192

operational
NORAD ID: 57405 Int'l Des: 2023-102 Owner: SPXS Country: US Constellation: starlink
LEOCIRCULAR

About Starlink 30192

Description loading...

Live Position

Loading 3D Globe...

Upcoming Passes

Altitude History

Altitude vs Time

uPlot chart will show altitude changes over time

Two-Line Element Set

1 57405U 23102B 25351.66670139 .00072374 00000-0 43843-3 0 9991
2 57405 42.9990 315.7586 0001796 205.3760 248.4604 15.76633611 5896
Epoch: Dec 17, 2025 • Age: 5 hours

Current Status

Altitude 338.2 km
Velocity 7.71 km/s
Sub-Earth Point 16.03°N, 77.58°E
Launch Date Jul 19, 2023
Age 2.4 years
Type internet

Technical Details

Classification Payload
Mass 730.00 kg
Dry Mass 700.00 kg
Total Mass 730.00 kg
Length 0.30 m
Diameter 4.10 m
Span 29.00 m
Shape Box + pan
Manufacturer SPXS
Bus Type Starlink V2M
Phase Status In Orbit
Owner/State SPXS/US

Large Constellations

Loading constellations...